ITY8905 LIEE-EDDM

Flight info

Callsign ITY8905
Flight time 1h 29m
Altitude 38000
Route KOVAS DCT DEXUL DCT LABOM DCT UREXE DCT ROMPO DCT OLBEK DCT IBROS DCT TAGIP DCT GUNGO DCT TISAX T102 NINUR T101 BETOS BETOS1B
Aircraft A320/M-SDE3FGHIRWY/LB1

Departure

Time 2026-05-06 19:16
Airport Cagliari Elmas Airport (LIEE)

Arrival

Time 2026-05-06 20:46
Airport Munich Airport (EDDM)
Time Latitude Longitude Altitude Speed Heading
2026-05-06 18:41 39.25312 9.05812 15 ft 0 kts 112°
2026-05-06 19:05 39.25313 9.05810 15 ft 2 kts 112°
2026-05-06 19:06 39.25322 9.05780 15 ft 4 kts 112°
2026-05-06 19:06 39.25335 9.05743 15 ft 3 kts 112°
2026-05-06 19:06 39.25341 9.05711 15 ft 4 kts 86°
2026-05-06 19:06 39.25338 9.05689 16 ft 4 kts 62°
2026-05-06 19:07 39.25332 9.05676 16 ft 0 kts 52°
2026-05-06 19:10 39.25340 9.05683 16 ft 8 kts 28°
2026-05-06 19:11 39.25391 9.05562 15 ft 19 kts 286°
2026-05-06 19:11 39.25423 9.05408 15 ft 17 kts 300°
2026-05-06 19:11 39.25505 9.05288 15 ft 19 kts 316°
2026-05-06 19:11 39.25613 9.05163 15 ft 22 kts 318°
2026-05-06 19:12 39.25737 9.05021 15 ft 25 kts 318°
2026-05-06 19:12 39.25874 9.04860 15 ft 28 kts 318°
2026-05-06 19:12 39.26028 9.04683 15 ft 31 kts 317°
2026-05-06 19:12 39.26122 9.04515 15 ft 8 kts 276°
2026-05-06 19:13 39.26122 9.04513 15 ft 0 kts 276°
2026-05-06 19:14 39.26123 9.04499 15 ft 1 kts 276°
2026-05-06 19:14 39.26123 9.04453 15 ft 12 kts 263°
2026-05-06 19:14 39.26061 9.04384 14 ft 11 kts 178°
2026-05-06 19:15 39.26000 9.04441 14 ft 7 kts 138°
2026-05-06 19:15 39.25999 9.04442 14 ft 0 kts 138°
2026-05-06 19:15 39.25829 9.04636 16 ft 70 kts 138°
2026-05-06 19:15 39.25299 9.05252 14 ft 131 kts 139°
2026-05-06 19:16 39.24499 9.06167 124 ft 168 kts 139°
2026-05-06 19:16 39.23624 9.07182 818 ft 167 kts 137°
2026-05-06 19:16 39.22756 9.08183 1486 ft 171 kts 136°
2026-05-06 19:16 39.21808 9.09283 1802 ft 193 kts 136°
2026-05-06 19:17 39.20758 9.10518 2132 ft 216 kts 137°
2026-05-06 19:17 39.19618 9.11857 2818 ft 223 kts 139°
2026-05-06 19:17 39.18253 9.12786 3576 ft 227 kts 174°
2026-05-06 19:17 39.16736 9.12354 4309 ft 232 kts 217°
2026-05-06 19:18 39.15795 9.10703 5108 ft 234 kts 243°
2026-05-06 19:18 39.14865 9.08985 5955 ft 234 kts 224°
2026-05-06 19:18 39.13702 9.07451 6582 ft 244 kts 238°
2026-05-06 19:18 39.13293 9.05347 7250 ft 249 kts 276°
2026-05-06 19:19 39.13956 9.03206 7598 ft 273 kts 310°
2026-05-06 19:19 39.15501 9.01717 8217 ft 283 kts 333°
2026-05-06 19:19 39.17219 9.00434 9019 ft 287 kts 322°
2026-05-06 19:19 39.18751 8.98783 9928 ft 287 kts 317°
2026-05-06 19:20 39.20223 8.97020 10580 ft 289 kts 315°
2026-05-06 19:20 39.21695 8.95230 11041 ft 293 kts 319°
2026-05-06 19:20 39.23406 8.93777 11495 ft 298 kts 333°
2026-05-06 19:20 39.25418 8.92963 11720 ft 312 kts 351°
2026-05-06 19:21 39.27651 8.92767 11858 ft 332 kts 355°
2026-05-06 19:21 39.30023 8.92618 12246 ft 347 kts 355°
2026-05-06 19:21 39.32464 8.92460 12884 ft 353 kts 355°
2026-05-06 19:21 39.34940 8.92293 13560 ft 359 kts 354°
2026-05-06 19:22 39.37449 8.92114 14174 ft 364 kts 354°
2026-05-06 19:22 39.39988 8.91951 14620 ft 367 kts 358°
2026-05-06 19:22 39.42548 8.92263 14838 ft 373 kts
2026-05-06 19:22 39.45046 8.93234 15086 ft 379 kts 21°
2026-05-06 19:23 39.47400 8.94810 15729 ft 383 kts 27°
2026-05-06 19:23 39.49744 8.96493 16343 ft 386 kts 27°
2026-05-06 19:23 39.52109 8.98179 16940 ft 390 kts 27°
2026-05-06 19:23 39.54507 8.99882 17531 ft 395 kts 27°
2026-05-06 19:24 39.56965 9.01625 18133 ft 399 kts 26°
2026-05-06 19:24 39.59409 9.03361 18599 ft 404 kts 26°
2026-05-06 19:24 39.61882 9.05125 19094 ft 407 kts 26°
2026-05-06 19:24 39.64420 9.06785 19610 ft 409 kts 19°
2026-05-06 19:25 39.67120 9.07917 20137 ft 409 kts 11°
2026-05-06 19:25 39.69890 9.08840 20692 ft 412 kts 11°
2026-05-06 19:25 39.72678 9.09771 21215 ft 415 kts 11°
2026-05-06 19:25 39.75493 9.10714 21734 ft 419 kts 10°
2026-05-06 19:26 39.78366 9.11679 22268 ft 422 kts 10°
2026-05-06 19:26 39.81225 9.12642 22773 ft 426 kts 10°
2026-05-06 19:26 39.84102 9.13610 23275 ft 429 kts 10°
2026-05-06 19:26 39.86976 9.14743 23680 ft 436 kts 17°
2026-05-06 19:27 39.89821 9.16166 24111 ft 440 kts 17°
2026-05-06 19:27 39.92730 9.17616 24490 ft 443 kts 17°
2026-05-06 19:27 39.95623 9.19055 24880 ft 446 kts 17°
2026-05-06 19:27 39.98515 9.20499 25262 ft 449 kts 17°
2026-05-06 19:28 40.01461 9.21971 25629 ft 451 kts 17°
2026-05-06 19:28 40.04404 9.23443 25956 ft 454 kts 17°
2026-05-06 19:28 40.06361 9.24422 26180 ft 456 kts 17°
2026-05-06 19:28 40.09505 9.25993 26570 ft 458 kts 17°
2026-05-06 19:29 40.12520 9.27505 26924 ft 462 kts 17°
2026-05-06 19:29 40.15496 9.28998 27255 ft 465 kts 17°
2026-05-06 19:29 40.18526 9.30519 27595 ft 467 kts 17°
2026-05-06 19:29 40.21554 9.32042 27927 ft 470 kts 17°
2026-05-06 19:30 40.24633 9.33587 28257 ft 473 kts 17°
2026-05-06 19:30 40.27715 9.35131 28585 ft 475 kts 17°
2026-05-06 19:30 40.30815 9.36690 28907 ft 478 kts 17°
2026-05-06 19:30 40.33925 9.38259 29208 ft 480 kts 17°
2026-05-06 19:31 40.37056 9.39844 29494 ft 482 kts 18°
2026-05-06 19:31 40.40193 9.41433 29767 ft 485 kts 18°
2026-05-06 19:31 40.46469 9.44607 30281 ft 489 kts 18°
2026-05-06 19:32 40.49694 9.46238 30515 ft 491 kts 18°
2026-05-06 19:32 40.52844 9.47833 30723 ft 493 kts 18°
2026-05-06 19:32 40.56057 9.49465 30931 ft 495 kts 18°
2026-05-06 19:32 40.59278 9.51103 31147 ft 497 kts 18°
2026-05-06 19:33 40.62500 9.52746 31441 ft 496 kts 18°
2026-05-06 19:33 40.65713 9.54386 31754 ft 495 kts 18°
2026-05-06 19:33 40.68926 9.56024 32064 ft 494 kts 18°
2026-05-06 19:33 40.72126 9.57655 32383 ft 493 kts 18°
2026-05-06 19:34 40.75320 9.59285 32688 ft 492 kts 18°
2026-05-06 19:34 40.78517 9.60920 32977 ft 491 kts 18°
2026-05-06 19:34 40.81661 9.62532 33276 ft 490 kts 18°
2026-05-06 19:34 40.84850 9.64166 33563 ft 490 kts 18°
2026-05-06 19:35 40.88026 9.65792 33866 ft 489 kts 18°
2026-05-06 19:35 40.91195 9.67413 34135 ft 488 kts 18°
2026-05-06 19:35 40.94363 9.69040 34418 ft 488 kts 17°
2026-05-06 19:35 40.97530 9.70672 34653 ft 488 kts 18°
2026-05-06 19:36 41.00691 9.72305 34889 ft 488 kts 18°
2026-05-06 19:36 41.03851 9.73941 35120 ft 487 kts 18°
2026-05-06 19:36 41.07011 9.75579 35346 ft 487 kts 18°
2026-05-06 19:36 41.10168 9.77216 35565 ft 487 kts 18°
2026-05-06 19:37 41.13323 9.78853 35785 ft 486 kts 18°
2026-05-06 19:37 41.16447 9.80476 36006 ft 486 kts 17°
2026-05-06 19:37 41.19596 9.82114 36201 ft 486 kts 17°
2026-05-06 19:37 41.22748 9.83753 36370 ft 486 kts 18°
2026-05-06 19:38 41.25647 9.85228 36543 ft 484 kts 14°
2026-05-06 19:38 41.28898 9.86466 36724 ft 482 kts 11°
2026-05-06 19:38 41.32115 9.87610 36909 ft 481 kts 11°
2026-05-06 19:38 41.35355 9.88770 37112 ft 481 kts 11°
2026-05-06 19:39 41.38583 9.89939 37290 ft 481 kts 11°
2026-05-06 19:39 41.41812 9.91114 37465 ft 481 kts 11°
2026-05-06 19:39 41.45037 9.92290 37640 ft 480 kts 11°
2026-05-06 19:39 41.48265 9.93463 37820 ft 480 kts 11°
2026-05-06 19:40 41.51484 9.94629 37939 ft 480 kts 11°
2026-05-06 19:40 41.54710 9.95794 37970 ft 480 kts 11°
2026-05-06 19:40 41.61165 9.98127 37962 ft 480 kts 11°
2026-05-06 19:41 41.67580 10.00460 37964 ft 481 kts 11°
2026-05-06 19:41 41.74045 10.02810 37961 ft 481 kts 11°
2026-05-06 19:42 41.80541 10.04937 37959 ft 476 kts
2026-05-06 19:42 41.87113 10.05912 37956 ft 475 kts
2026-05-06 19:43 41.93691 10.06860 37961 ft 476 kts
2026-05-06 19:43 42.00286 10.07821 37983 ft 476 kts
2026-05-06 19:44 42.06845 10.08776 37968 ft 477 kts
2026-05-06 19:44 42.13456 10.09745 37964 ft 478 kts
2026-05-06 19:45 42.20063 10.10718 37975 ft 478 kts
2026-05-06 19:45 42.26694 10.11694 37966 ft 478 kts
2026-05-06 19:46 42.33326 10.12659 37961 ft 478 kts
2026-05-06 19:46 42.39957 10.13631 37963 ft 478 kts
2026-05-06 19:47 42.46580 10.14613 37966 ft 479 kts
2026-05-06 19:47 42.53165 10.15594 37965 ft 479 kts
2026-05-06 19:48 42.59799 10.16581 37982 ft 479 kts
2026-05-06 19:48 42.66422 10.17562 37972 ft 479 kts
2026-05-06 19:49 42.73056 10.18553 37965 ft 479 kts
2026-05-06 19:49 42.79674 10.19537 37971 ft 480 kts
2026-05-06 19:50 42.86312 10.20530 37948 ft 480 kts
2026-05-06 19:50 42.92947 10.21526 37959 ft 480 kts
2026-05-06 19:51 42.99584 10.22521 37972 ft 479 kts
2026-05-06 19:51 43.06242 10.23519 37967 ft 479 kts
2026-05-06 19:52 43.12840 10.24515 37967 ft 479 kts
2026-05-06 19:52 43.19514 10.25528 37979 ft 479 kts
2026-05-06 19:53 43.26144 10.26541 37971 ft 479 kts
2026-05-06 19:53 43.32785 10.27552 37968 ft 479 kts
2026-05-06 19:54 43.39413 10.28554 37969 ft 480 kts
2026-05-06 19:54 43.46055 10.29569 37967 ft 480 kts
2026-05-06 19:55 43.52649 10.30578 37961 ft 480 kts
2026-05-06 19:55 43.59292 10.31599 37981 ft 480 kts
2026-05-06 19:56 43.65932 10.32613 37995 ft 480 kts
2026-05-06 19:56 43.72577 10.33633 37992 ft 480 kts
2026-05-06 19:57 43.79224 10.34686 38007 ft 481 kts
2026-05-06 19:57 43.85814 10.36259 38000 ft 484 kts
2026-05-06 19:58 43.92414 10.38180 37997 ft 484 kts
2026-05-06 19:58 43.99007 10.40039 38006 ft 483 kts
2026-05-06 19:59 44.05625 10.41762 37994 ft 483 kts
2026-05-06 19:59 44.12251 10.43454 37995 ft 484 kts
2026-05-06 20:00 44.18906 10.45198 37974 ft 489 kts
2026-05-06 20:00 44.25613 10.46981 37958 ft 491 kts
2026-05-06 20:01 44.32334 10.48773 37944 ft 492 kts
2026-05-06 20:01 44.39072 10.50561 37936 ft 493 kts
2026-05-06 20:02 44.45817 10.52349 37942 ft 493 kts
2026-05-06 20:02 44.52558 10.54147 37953 ft 493 kts
2026-05-06 20:03 44.58206 10.55662 37949 ft 493 kts
2026-05-06 20:03 44.64936 10.57470 37937 ft 492 kts
2026-05-06 20:04 44.71668 10.59286 37923 ft 491 kts
2026-05-06 20:04 44.78340 10.61080 37933 ft 489 kts
2026-05-06 20:05 44.85018 10.62877 37927 ft 487 kts
2026-05-06 20:05 44.91678 10.64668 37930 ft 487 kts
2026-05-06 20:06 44.98331 10.66470 37911 ft 487 kts
2026-05-06 20:06 45.04999 10.68296 37911 ft 487 kts
2026-05-06 20:07 45.11660 10.70113 37910 ft 488 kts
2026-05-06 20:07 45.18332 10.71937 37901 ft 488 kts
2026-05-06 20:08 45.25016 10.73765 37900 ft 489 kts
2026-05-06 20:08 45.31656 10.75585 37929 ft 489 kts
2026-05-06 20:09 45.38357 10.77432 37930 ft 490 kts
2026-05-06 20:09 45.45064 10.79271 37927 ft 490 kts
2026-05-06 20:10 45.51770 10.81126 37931 ft 489 kts
2026-05-06 20:10 45.58407 10.82962 37927 ft 489 kts
2026-05-06 20:11 45.65094 10.84820 37921 ft 489 kts
2026-05-06 20:11 45.71763 10.86680 37925 ft 488 kts
2026-05-06 20:12 45.78429 10.88544 37936 ft 487 kts
2026-05-06 20:12 45.85083 10.90407 37953 ft 486 kts
2026-05-06 20:13 45.91721 10.92270 37969 ft 485 kts
2026-05-06 20:13 45.98337 10.94132 37976 ft 484 kts
2026-05-06 20:14 46.04939 10.95998 37997 ft 483 kts
2026-05-06 20:14 46.11517 10.97856 38006 ft 481 kts
2026-05-06 20:15 46.18083 10.99713 38012 ft 480 kts
2026-05-06 20:15 46.24591 11.01555 38015 ft 479 kts
2026-05-06 20:16 46.31145 11.03422 38020 ft 480 kts
2026-05-06 20:16 46.37697 11.05300 38020 ft 479 kts
2026-05-06 20:17 46.44291 11.06504 37818 ft 479 kts 356°
2026-05-06 20:17 46.47658 11.06507 37549 ft 488 kts 356°
2026-05-06 20:17 46.51091 11.06496 37283 ft 495 kts 356°
2026-05-06 20:18 46.54553 11.06486 37005 ft 498 kts 356°
2026-05-06 20:18 46.58027 11.06485 36750 ft 501 kts 356°
2026-05-06 20:18 46.61519 11.06487 36483 ft 503 kts 356°
2026-05-06 20:18 46.65013 11.06377 36246 ft 501 kts 350°
2026-05-06 20:19 46.68498 11.05774 35987 ft 499 kts 348°
2026-05-06 20:19 46.71909 11.05142 35729 ft 498 kts 348°
2026-05-06 20:19 46.75386 11.04496 35475 ft 497 kts 348°
2026-05-06 20:19 46.78764 11.03867 35261 ft 495 kts 348°
2026-05-06 20:20 46.82222 11.03220 35012 ft 494 kts 347°
2026-05-06 20:20 46.85625 11.02576 34746 ft 492 kts 347°
2026-05-06 20:20 46.89021 11.01925 33898 ft 494 kts 347°
2026-05-06 20:20 46.92429 11.01283 33194 ft 490 kts 348°
2026-05-06 20:21 46.95793 11.01112 32600 ft 489 kts 358°
2026-05-06 20:21 46.99180 11.01555 32002 ft 488 kts
2026-05-06 20:21 47.02550 11.02073 31383 ft 486 kts
2026-05-06 20:21 47.05904 11.02586 30780 ft 483 kts
2026-05-06 20:22 47.09239 11.03095 30204 ft 480 kts
2026-05-06 20:22 47.12564 11.03598 29533 ft 477 kts
2026-05-06 20:22 47.15842 11.04094 28983 ft 471 kts
2026-05-06 20:22 47.19092 11.04591 28384 ft 467 kts
2026-05-06 20:23 47.22311 11.05085 27816 ft 462 kts
2026-05-06 20:23 47.25502 11.05572 27281 ft 457 kts
2026-05-06 20:23 47.28651 11.06053 26740 ft 451 kts
2026-05-06 20:23 47.31752 11.06527 26221 ft 446 kts
2026-05-06 20:24 47.34831 11.07000 25706 ft 443 kts
2026-05-06 20:24 47.37935 11.07478 25220 ft 438 kts
2026-05-06 20:24 47.40953 11.07942 24732 ft 435 kts
2026-05-06 20:24 47.43956 11.08403 24261 ft 432 kts
2026-05-06 20:25 47.46933 11.08861 23791 ft 428 kts
2026-05-06 20:25 47.49884 11.09319 23284 ft 425 kts
2026-05-06 20:25 47.52820 11.09777 22784 ft 421 kts
2026-05-06 20:25 47.55690 11.10526 22304 ft 418 kts 14°
2026-05-06 20:26 47.58411 11.11988 21827 ft 415 kts 25°
2026-05-06 20:26 47.60929 11.14040 21347 ft 411 kts 31°
2026-05-06 20:26 47.63385 11.16175 20871 ft 408 kts 31°
2026-05-06 20:26 47.65835 11.18309 20372 ft 405 kts 31°
2026-05-06 20:27 47.68260 11.20425 19890 ft 403 kts 31°
2026-05-06 20:27 47.70670 11.22530 19402 ft 401 kts 31°
2026-05-06 20:27 47.73082 11.24600 18914 ft 399 kts 28°
2026-05-06 20:27 47.75631 11.26204 18444 ft 397 kts 20°
2026-05-06 20:28 47.78209 11.27623 17942 ft 395 kts 20°
2026-05-06 20:28 47.80777 11.29045 17456 ft 391 kts 20°
2026-05-06 20:28 47.83308 11.30454 17010 ft 387 kts 20°
2026-05-06 20:28 47.85822 11.31859 16568 ft 384 kts 20°
2026-05-06 20:29 47.88343 11.33106 16112 ft 380 kts 12°
2026-05-06 20:29 47.90944 11.33650 15650 ft 376 kts
2026-05-06 20:29 47.93514 11.33855 15198 ft 374 kts
2026-05-06 20:29 47.96113 11.34068 14743 ft 372 kts
2026-05-06 20:30 47.98693 11.34287 14281 ft 371 kts
2026-05-06 20:30 48.03752 11.35357 13326 ft 361 kts 20°
2026-05-06 20:30 48.05910 11.37175 12780 ft 353 kts 38°
2026-05-06 20:31 48.07613 11.39789 12203 ft 349 kts 55°
2026-05-06 20:31 48.08744 11.42942 11652 ft 339 kts 71°
2026-05-06 20:31 48.09530 11.46209 11083 ft 330 kts 72°
2026-05-06 20:31 48.10300 11.49398 10549 ft 322 kts 72°
2026-05-06 20:32 48.11049 11.52493 10014 ft 315 kts 72°
2026-05-06 20:32 48.11791 11.55564 9449 ft 310 kts 71°
2026-05-06 20:32 48.12511 11.58558 8878 ft 309 kts 71°
2026-05-06 20:32 48.13255 11.61667 8293 ft 314 kts 70°
2026-05-06 20:33 48.13980 11.64698 7727 ft 312 kts 69°
2026-05-06 20:33 48.14706 11.67717 7171 ft 304 kts 69°
2026-05-06 20:33 48.15415 11.70672 6635 ft 297 kts 68°
2026-05-06 20:33 48.16103 11.73557 6087 ft 291 kts 68°
2026-05-06 20:34 48.16782 11.76409 5512 ft 285 kts 67°
2026-05-06 20:34 48.17434 11.79145 5014 ft 277 kts 67°
2026-05-06 20:34 48.18116 11.81780 4925 ft 269 kts 59°
2026-05-06 20:34 48.19040 11.84205 4929 ft 269 kts 54°
2026-05-06 20:35 48.19994 11.86612 4927 ft 265 kts 55°
2026-05-06 20:35 48.20917 11.88956 4925 ft 260 kts 54°
2026-05-06 20:35 48.21819 11.91253 4930 ft 258 kts 55°
2026-05-06 20:35 48.22732 11.93579 4929 ft 259 kts 55°
2026-05-06 20:36 48.23645 11.95907 4928 ft 258 kts 55°
2026-05-06 20:36 48.24553 11.98226 4925 ft 258 kts 54°
2026-05-06 20:36 48.25463 12.00549 4930 ft 259 kts 54°
2026-05-06 20:36 48.26379 12.02884 4927 ft 259 kts 55°
2026-05-06 20:37 48.27292 12.05222 4929 ft 260 kts 55°
2026-05-06 20:37 48.28196 12.07548 4922 ft 252 kts 54°
2026-05-06 20:37 48.29059 12.09775 4926 ft 243 kts 54°
2026-05-06 20:37 48.29905 12.11950 4926 ft 239 kts 54°
2026-05-06 20:38 48.30741 12.14094 4931 ft 234 kts 54°
2026-05-06 20:38 48.31271 12.15462 4957 ft 224 kts 54°
2026-05-06 20:38 48.32152 12.17327 4923 ft 211 kts 30°
2026-05-06 20:38 48.33421 12.17968 4927 ft 186 kts 352°
2026-05-06 20:39 48.34660 12.17653 4924 ft 177 kts 331°
2026-05-06 20:39 48.35699 12.16741 4926 ft 171 kts 313°
2026-05-06 20:39 48.36442 12.15398 4933 ft 166 kts 296°
2026-05-06 20:39 48.36834 12.13788 4927 ft 164 kts 280°
2026-05-06 20:40 48.36845 12.12071 4925 ft 165 kts 265°
2026-05-06 20:40 48.36718 12.10364 4927 ft 164 kts 266°
2026-05-06 20:40 48.36593 12.08662 4931 ft 163 kts 266°
2026-05-06 20:40 48.36468 12.06958 4896 ft 164 kts 266°
2026-05-06 20:41 48.36341 12.05247 4749 ft 165 kts 266°
2026-05-06 20:41 48.36215 12.03546 4551 ft 157 kts 266°
2026-05-06 20:41 48.36099 12.02004 4359 ft 145 kts 266°
2026-05-06 20:41 48.35988 12.00502 4169 ft 141 kts 266°
2026-05-06 20:42 48.35880 11.99046 3981 ft 139 kts 266°
2026-05-06 20:42 48.35771 11.97585 3791 ft 139 kts 266°
2026-05-06 20:42 48.35663 11.96144 3604 ft 138 kts 266°
2026-05-06 20:42 48.35556 11.94709 3422 ft 138 kts 266°
2026-05-06 20:43 48.35449 11.93291 3242 ft 137 kts 265°
2026-05-06 20:43 48.35339 11.91821 3048 ft 138 kts 265°
2026-05-06 20:43 48.35230 11.90382 2855 ft 138 kts 265°
2026-05-06 20:43 48.35122 11.88948 2669 ft 137 kts 264°
2026-05-06 20:44 48.35014 11.87528 2472 ft 137 kts 264°
2026-05-06 20:44 48.34906 11.86089 2273 ft 138 kts 262°
2026-05-06 20:44 48.34799 11.84687 2084 ft 136 kts 263°
2026-05-06 20:44 48.34692 11.83282 1889 ft 136 kts 262°
2026-05-06 20:45 48.34584 11.81839 1710 ft 138 kts 263°
2026-05-06 20:45 48.34478 11.80457 1527 ft 135 kts 262°
2026-05-06 20:45 48.34378 11.79136 1476 ft 112 kts 263°
2026-05-06 20:45 48.34307 11.78226 1480 ft 63 kts 263°
2026-05-06 20:46 48.34272 11.77773 1480 ft 35 kts 263°
2026-05-06 20:46 48.34250 11.77435 1485 ft 30 kts 269°
2026-05-06 20:46 48.34295 11.77150 1476 ft 27 kts 291°
2026-05-06 20:46 48.34346 11.76949 1484 ft 11 kts 290°
2026-05-06 20:47 48.34354 11.76919 1478 ft 0 kts 291°
2026-05-06 20:47 48.34369 11.76874 1482 ft 10 kts 298°
2026-05-06 20:47 48.34413 11.76743 1485 ft 17 kts 317°
2026-05-06 20:47 48.34535 11.76693 1484 ft 19 kts 357°
2026-05-06 20:48 48.34576 11.76806 1485 ft 14 kts 84°
2026-05-06 20:48 48.34592 11.76975 1485 ft 20 kts 83°
2026-05-06 20:48 48.34609 11.77199 1485 ft 22 kts 83°
2026-05-06 20:48 48.34626 11.77415 1479 ft 20 kts 82°
2026-05-06 20:49 48.34642 11.77614 1485 ft 18 kts 84°
2026-05-06 20:49 48.34654 11.77799 1478 ft 17 kts 83°
2026-05-06 20:49 48.34670 11.77976 1485 ft 19 kts 83°
2026-05-06 20:49 48.34686 11.78201 1480 ft 23 kts 83°
2026-05-06 20:50 48.34705 11.78433 1485 ft 21 kts 83°
2026-05-06 20:50 48.34720 11.78648 1481 ft 20 kts 84°
2026-05-06 20:50 48.34737 11.78854 1485 ft 21 kts 83°
2026-05-06 20:50 48.34754 11.79079 1476 ft 23 kts 83°
2026-05-06 20:51 48.34775 11.79330 1482 ft 24 kts 84°
2026-05-06 20:51 48.34792 11.79573 1481 ft 21 kts 83°
2026-05-06 20:51 48.34837 11.79690 1483 ft 12 kts 17°
2026-05-06 20:51 48.34918 11.79683 1486 ft 12 kts 353°
2026-05-06 20:52 48.35011 11.79667 1481 ft 15 kts 355°
2026-05-06 20:52 48.35124 11.79647 1480 ft 18 kts 352°
2026-05-06 20:52 48.35261 11.79624 1479 ft 21 kts 354°
2026-05-06 20:52 48.35374 11.79603 1475 ft 7 kts 359°
2026-05-06 20:53 48.35408 11.79639 1480 ft 6 kts 57°
2026-05-06 20:53 48.35416 11.79708 1472 ft 8 kts 83°
2026-05-06 20:53 48.35419 11.79752 1480 ft 1 kts 83°
2026-05-06 20:53 48.35419 11.79754 1480 ft 0 kts 83°